Flag for Germany Weather past 2 weeks in Sankt Augustin, North Rhine-Westphalia, Germany

Now
52 °F

Light rain. Partly cloudy.


Feels Like: 49 °F
Forecast: 45 / 54 °F
Wind: 7 mph from Southeast

Location: Koeln / Bonn

Current Time: Apr 26, 2015 at 4:51:15 AM

Latest Report: Apr 26, 2015 at 4:20 AM


Visibility: N/A

Pressure: 29.77 "Hg

Humidity: 94%

Dew point: 50 °F

Location of Sankt AugustinLocation

Historic Weather in Sankt Augustin — Graph

°F

Sankt Augustin temperature yesterday

Maximum temperature yesterday: 59 °F (at 12:20 AM)
Minimum temperature yesterday: 52 °F (at 5:20 AM)
Average temperature yesterday: 56 °F

Past Weeks' High & Low Weather Summary

 TemperatureHumidityPressure
High77 °F (Apr 15, 4:20 PM)100% (Apr 23, 7:20 AM)30.48 "Hg (Apr 23, 7:20 AM)
Low30 °F (Apr 19, 6:50 AM)22% (Apr 24, 5:20 PM)29.77 "Hg (Apr 25, 4:50 AM)
Average53 °F59%30.17 "Hg
* Reported Apr 11 3:20 AM — Apr 26 3:50 AM, Sankt Augustin, Weather by CustomWeather, © 2015

Note: Actual official high and low records may vary slightly from our data, if they occured in-between our weather recording intervals... More about our weather records

Advertising

Sankt Augustin weather history for previous 24 hours

 ConditionsComfort  
Time TempWeatherWind HumidityBarometerVisibility
3:50 AM
Sun, Apr 26
52 °FLight rain. Passing clouds.7 mph94%29.77 "HgN/A
3:20 AM52 °FLight rain. Mostly cloudy.7 mph94%29.77 "HgN/A
2:50 AM52 °FLight rain. Mostly cloudy.5 mph94%29.77 "HgN/A
2:20 AM54 °FLight rain. Passing clouds.5 mph88%29.77 "HgN/A
1:50 AM52 °FPartly cloudy.6 mph94%29.77 "HgN/A
1:20 AM52 °FPartly cloudy.7 mph88%29.80 "HgN/A
12:50 AM52 °FFog.7 mph88%29.80 "HgN/A
12:20 AM52 °FFog.8 mph88%29.80 "HgN/A
11:20 PM
Sat, Apr 25
54 °FFog.6 mph88%29.80 "HgN/A
10:50 PM54 °FFog.3 mph88%29.80 "HgN/A
10:20 PM54 °FFog.2 mph94%29.80 "HgN/A
9:50 PM54 °FFog.2 mph94%29.77 "HgN/A
9:20 PM55 °FBroken clouds.3 mph88%29.77 "HgN/A
8:50 PM57 °FSprinkles. Broken clouds.3 mph82%29.77 "HgN/A
8:20 PM57 °FScattered clouds.2 mph88%29.77 "HgN/A
7:50 PM57 °FScattered clouds.3 mph82%29.77 "HgN/A
7:20 PM59 °FBroken clouds.2 mph82%29.77 "HgN/A
6:50 PM59 °FBroken clouds.3 mph82%29.77 "HgN/A
6:20 PM59 °FPartly sunny.6 mph77%29.77 "HgN/A
5:50 PM59 °FLight rain. Partly sunny.6 mph77%29.77 "HgN/A
5:20 PM59 °FLight rain. Broken clouds.6 mph77%29.77 "HgN/A
4:50 PM59 °FLight rain. Broken clouds.6 mph77%29.77 "HgN/A
4:20 PM57 °FBroken clouds.6 mph82%29.77 "HgN/A
3:50 PM57 °FLight rain. Partly sunny.8 mph82%29.77 "HgN/A
3:20 PM57 °FLight rain. Partly sunny.12 mph88%29.77 "HgN/A
2:50 PM57 °FRain showers. Broken clouds.3 mph88%29.77 "Hg2 mi
2:20 PM57 °FSprinkles. Broken clouds.3 mph88%29.77 "Hg2 mi
1:50 PM57 °FLight rain. Broken clouds.5 mph94%29.77 "Hg5 mi
1:20 PM57 °FLight rain. Partly sunny.2 mph88%29.77 "Hg6 mi
12:50 PM57 °FLight rain. Broken clouds.3 mph88%29.77 "Hg6 mi
12:20 PM55 °FLight rain. More clouds than sun.6 mph94%29.80 "Hg6 mi
11:50 AM55 °FLight rain. More clouds than sun.5 mph88%29.80 "Hg5 mi
11:20 AM55 °FLight rain. Mostly cloudy.6 mph94%29.80 "Hg4 mi
10:50 AM55 °FLight rain. Fog.9 mph88%29.80 "Hg3 mi
10:20 AM54 °FLight rain. More clouds than sun.8 mph94%29.80 "Hg4 mi
9:50 AM52 °FLight rain. More clouds than sun.6 mph94%29.80 "Hg4 mi
9:20 AM52 °FLight rain. More clouds than sun.7 mph88%29.80 "Hg4 mi
8:50 AM52 °FLight rain. More clouds than sun.5 mph88%29.80 "Hg5 mi
8:20 AM52 °FLight rain. More clouds than sun.3 mph82%29.80 "Hg6 mi
7:50 AM54 °FLight rain. More clouds than sun.3 mph72%29.80 "Hg6 mi
7:20 AM54 °FMore clouds than sun.2 mph72%29.80 "HgN/A
6:50 AM54 °FMostly cloudy.1 mph67%29.80 "HgN/A
6:20 AM52 °FMostly cloudy.5 mph72%29.80 "HgN/A
5:20 AM52 °FClear.6 mph72%29.77 "Hg10 mi
4:50 AM54 °FClear.7 mph67%29.77 "Hg10 mi
4:20 AM55 °FClear.3 mph59%29.80 "Hg10 mi
Weather by CustomWeather, © 2015

See weather overviewHow to use our weather pages